GFSNW_prec_snow_336.txt.gz
Snowfall_Accumulation
0.0 0.0 0.0 0.0 0.0 0.0 0.0 0.0 11.6 0.0 0.0 5.4 10.4 11.0 4.6 0.4 0.2 0.0 0.7 0.7 0.8 1.5 1.2 2.1 0.1 0.4 0.4 1.3 2.5 1.9 1.8 5.7 3.8 2.3 2.6 2.1 4.0 3.2 4.2 8.3 7.7 7.5 5.6 4.7
0.0 0.0 0.0 0.0 0.0 0.0 0.0 4.4 2.7 0.0 0.0 10.5 6.7 1.1 0.0 2.1 1.9 0.6 2.3 1.8 2.4 1.8 1.1 5.0 0.0 2.6 1.9 0.4 1.9 3.4 2.7 5.0 3.9 4.2 2.4 2.2 5.3 4.5 3.7 4.8 8.6 8.1 6.3 2.3
0.0 0.0 0.0 0.0 0.0 0.0 0.0 4.5 10.6 0.0 0.0 0.0 3.5 4.3 1.9 1.0 1.1 2.1 2.1 2.4 0.1 2.5 0.8 0.1 3.9 2.9 3.4 2.2 2.1 1.5 6.4 6.3 4.4 4.2 8.7 10.1 7.7 3.8 2.8 5.0 10.7 4.8 2.8 1.1
0.0 0.0 0.0 0.0 0.0 0.0 0.0 5.5 6.8 0.0 9.1 1.9 3.6 4.9 4.4 2.4 3.0 0.4 1.8 2.3 1.8 3.7 5.0 1.9 1.8 0.7 0.4 0.0 2.0 2.4 3.8 4.4 1.0 2.1 2.9 7.0 5.6 3.9 4.0 6.1 3.6 5.7 3.5 1.4
0.0 0.0 0.0 0.0 0.0 0.0 0.0 5.7 5.0 3.5 3.6 0.9 1.9 2.5 2.6 1.4 1.6 3.0 2.4 2.1 1.4 1.3 3.7 3.6 3.2 2.1 0.3 2.0 2.0 4.2 3.6 5.3 6.2 6.7 3.5 3.8 3.9 2.0 2.8 2.6 2.7 2.4 3.1 2.8
0.0 0.0 0.0 0.0 0.0 0.0 0.0 2.9 1.6 13.6 3.3 0.7 1.6 2.0 1.3 2.4 2.0 0.6 0.5 1.2 1.5 0.7 0.5 0.0 0.0 0.3 1.4 2.9 3.0 2.0 6.9 9.7 12.3 9.8 2.6 4.6 4.0 4.8 4.4 5.3 6.3 5.5 4.6 4.0
0.0 0.0 0.0 0.0 0.0 0.0 0.0 0.0 4.2 19.9 8.4 1.2 0.6 0.1 0.5 1.1 0.4 2.6 0.0 0.2 2.2 0.0 0.0 0.0 0.1 0.3 2.1 2.1 2.1 1.3 4.2 8.5 13.0 15.7 11.8 14.9 6.6 2.5 2.6 4.6 6.0 6.6 4.8 2.6
0.0 0.0 0.0 0.0 0.0 0.0 0.0 0.0 3.1 21.6 14.3 0.8 0.4 0.5 0.7 0.1 0.0 0.7 0.9 0.0 0.1 0.6 0.8 2.1 3.2 2.5 1.9 1.1 1.0 1.8 2.3 5.6 10.9 12.8 10.4 8.4 5.2 4.9 6.4 6.2 6.4 5.1 3.8 1.5
0.0 0.0 0.0 0.0 0.0 0.0 0.0 0.0 0.0 17.1 21.9 3.3 0.3 0.5 0.2 2.2 2.2 1.4 0.2 0.0 0.0 1.0 3.0 4.6 6.3 2.6 0.9 1.5 0.7 0.2 0.7 2.9 10.3 11.5 10.9 6.8 5.6 6.5 8.0 4.4 5.2 3.1 2.7 1.8
0.0 0.0 0.0 0.0 0.0 0.0 0.0 0.0 0.0 3.6 28.3 0.7 0.0 1.7 2.6 1.7 2.2 5.1 1.1 0.7 0.8 0.7 3.4 6.3 4.9 2.4 1.8 1.0 2.6 1.7 1.3 3.5 8.7 8.0 11.1 5.4 4.7 4.2 5.5 7.1 5.8 3.6 4.0 3.0
0.0 0.0 0.0 0.0 0.0 0.0 0.0 0.0 0.0 0.0 25.6 1.8 0.0 0.0 0.6 3.3 4.5 8.6 3.6 4.7 1.7 3.6 6.1 6.4 1.5 3.9 1.5 2.2 2.2 4.9 4.3 5.0 4.7 6.4 11.8 6.3 2.1 1.7 5.5 6.8 3.5 3.5 3.4 3.9
0.0 0.0 0.0 0.0 0.0 0.0 0.0 0.0 0.0 0.0 8.0 3.7 0.0 0.0 0.0 0.0 0.2 4.6 8.6 4.4 1.9 5.7 7.0 4.4 6.8 5.5 4.0 2.4 3.4 1.3 5.8 6.6 7.9 6.0 7.6 6.6 5.0 6.4 6.2 3.3 2.0 1.6 1.8 2.3
0.0 0.0 0.0 0.0 0.0 0.0 0.0 0.0 0.0 0.0 17.4 6.7 2.4 1.1 0.1 0.0 0.6 0.9 11.6 5.6 3.1 4.3 3.6 10.3 9.4 8.1 4.3 3.7 1.8 0.8 3.1 2.3 2.9 2.5 1.8 0.6 3.9 2.2 1.5 1.4 2.4 1.8 1.0 1.0
0.0 0.0 0.0 0.0 0.0 0.0 0.0 0.0 0.0 0.0 22.3 29.2 5.1 0.2 0.1 0.0 0.2 2.5 4.7 5.9 5.2 5.3 5.1 14.2 13.7 9.2 2.5 2.6 1.7 0.9 1.2 0.4 0.9 1.0 0.2 0.6 1.2 0.7 1.0 0.9 0.7 0.7 0.3 1.0
0.0 0.0 0.0 0.0 0.0 0.0 0.0 0.0 0.0 0.0 6.2 32.0 11.5 2.7 0.9 0.0 0.1 1.5 2.9 4.0 4.3 4.8 9.5 14.0 11.4 4.8 5.8 5.4 3.3 2.1 1.4 1.9 2.0 1.2 0.7 1.3 0.1 0.2 0.2 0.2 0.3 0.1 0.3 1.4
0.0 0.0 0.0 0.0 0.0 0.0 0.0 10.5 0.0 0.0 0.8 24.8 25.0 3.2 0.4 0.0 0.2 0.9 1.7 2.2 2.8 6.6 10.7 12.2 5.4 3.5 6.9 10.3 4.3 1.3 0.8 0.7 1.8 1.5 0.4 0.7 0.6 0.1 0.0 1.1 0.5 0.3 1.0 1.7
0.0 0.0 0.0 0.0 0.0 0.0 1.9 13.4 2.4 0.0 0.0 34.1 40.2 20.8 3.4 1.2 1.5 3.0 3.7 3.5 3.8 10.2 17.6 13.1 8.3 6.9 10.3 14.2 6.0 1.0 0.5 0.8 1.1 0.6 0.3 1.3 0.4 0.6 1.3 0.8 0.3 1.5 1.4 1.2
0.0 0.0 0.0 0.0 0.0 3.2 3.8 3.3 4.1 2.7 10.2 26.6 61.6 33.2 12.8 2.3 3.5 7.1 7.6 8.4 7.6 20.5 14.9 11.8 6.3 6.6 12.8 15.2 2.1 0.9 0.6 1.0 2.0 2.1 1.8 3.8 3.0 2.6 2.9 0.7 1.8 1.5 1.7 1.7
0.0 0.0 0.0 5.0 5.0 3.8 3.0 4.1 4.4 3.8 4.5 63.3 43.4 24.2 14.1 6.1 3.7 5.7 9.9 12.2 24.6 18.4 19.9 9.5 6.9 14.8 18.9 9.4 3.5 1.5 2.7 4.7 4.1 3.9 3.1 2.4 2.3 3.0 2.9 2.1 1.7 2.7 4.5 3.4
0.0 7.5 10.8 24.9 8.5 2.7 3.3 3.8 18.3 33.8 46.2 43.4 28.3 14.7 11.4 8.0 10.6 11.9 16.5 23.0 27.5 31.1 18.3 11.9 19.6 13.6 8.1 5.9 7.0 6.6 6.1 5.9 6.0 9.2 7.2 4.2 5.7 5.0 5.4 5.9 6.1 6.0 6.3 6.3
10.4 28.2 28.8 10.4 4.7 5.0 13.8 47.3 46.9 38.1 33.2 17.8 13.4 8.6 10.3 7.9 17.4 18.7 21.2 28.7 27.0 27.7 16.3 13.8 16.1 13.3 7.4 5.8 7.7 7.7 7.5 7.5 7.4 7.7 8.4 10.0 12.0 11.8 9.0 7.1 9.8 8.0 8.5 8.9
11.9 10.7 15.8 15.5 38.1 47.5 48.6 42.0 21.9 15.0 12.2 13.3 9.5 6.7 8.3 13.4 14.3 22.9 26.9 24.5 22.6 19.5 10.0 16.2 12.9 8.5 7.3 9.1 8.8 8.8 8.7 8.4 7.9 7.9 9.7 8.3 8.5 9.1 9.0 9.6 9.6 8.8 8.5 7.7
15.9 37.6 47.2 41.2 41.0 43.9 31.9 17.4 12.5 11.9 9.8 11.0 9.5 10.7 11.8 15.1 20.8 28.8 25.1 23.9 17.2 11.3 13.4 10.5 9.0 7.0 6.9 8.4 10.1 10.2 10.3 8.4 8.8 9.1 7.0 7.2 7.3 6.9 6.7 6.6 5.5 5.6 5.4 6.2
37.8 46.6 39.8 26.5 22.6 12.6 10.9 8.5 8.1 8.9 11.2 12.7 13.4 14.2 16.2 14.8 21.8 21.0 22.4 15.6 10.3 16.9 12.0 9.4 8.3 8.4 7.7 7.2 7.9 8.0 8.2 8.5 8.3 10.7 10.6 8.4 7.0 6.1 5.4 5.9 6.6 5.8 5.2 5.8
52.6 39.1 25.6 14.9 9.3 7.2 9.2 9.4 9.2 11.1 14.0 17.2 18.0 18.2 17.3 19.8 23.3 16.7 10.9 15.3 14.0 12.0 10.3 9.7 9.9 9.8 9.4 8.8 8.0 7.2 6.7 7.4 7.6 7.6 8.1 9.1 6.7 4.9 4.2 5.5 5.6 5.4 5.4 4.4
43.0 30.4 13.6 7.1 6.3 7.0 6.1 7.9 8.6 9.6 11.5 13.2 17.5 17.2 18.0 16.6 14.8 13.9 10.7 10.8 10.1 11.1 11.6 11.6 10.5 9.7 9.1 9.5 9.1 8.5 8.5 8.6 8.8 8.6 9.4 8.5 8.6 9.2 9.0 6.9 6.0 5.8 6.2 4.9
38.4 14.5 8.5 8.6 6.8 6.7 6.7 6.6 6.4 6.4 8.2 9.8 11.7 16.0 11.2 12.1 12.7 9.6 8.0 10.2 11.5 10.7 8.8 8.2 8.6 8.1 8.0 7.6 6.8 6.5 5.9 5.7 5.9 7.0 8.0 9.3 10.0 9.4 7.7 7.8 9.7 8.9 8.6 7.9

GFSNW_prec_snow_339.txt.gz
Snowfall_Accumulation
0.0 0.0 0.0 0.0 0.0 0.0 0.0 0.0 11.6 0.0 0.0 5.4 10.4 11.0 4.6 0.4 0.2 0.0 0.7 0.7 0.8 1.5 1.2 2.1 0.1 0.4 0.4 1.3 2.5 1.9 1.8 5.7 3.8 2.3 2.6 2.1 4.0 3.2 4.2 8.3 7.7 7.5 5.6 4.7
0.0 0.0 0.0 0.0 0.0 0.0 0.0 4.4 2.7 0.0 0.0 10.5 6.7 1.1 0.0 2.1 1.9 0.6 2.3 1.8 2.4 1.8 1.1 5.0 0.0 2.6 1.9 0.4 1.9 3.4 2.7 5.0 3.9 4.2 2.4 2.2 5.3 4.5 3.7 4.8 8.6 8.1 6.3 2.3
0.0 0.0 0.0 0.0 0.0 0.0 0.0 4.5 10.6 0.0 0.0 0.0 3.5 4.3 1.9 1.0 1.1 2.1 2.1 2.4 0.1 2.5 0.8 0.1 3.9 2.9 3.4 2.2 2.1 1.5 6.4 6.3 4.4 4.2 8.7 10.1 7.7 3.8 2.8 5.0 10.8 4.8 2.8 1.1
0.0 0.0 0.0 0.0 0.0 0.0 0.0 5.5 6.8 0.0 9.1 1.9 3.6 4.9 4.4 2.4 3.0 0.4 1.8 2.3 1.8 3.7 5.0 1.9 1.8 0.7 0.4 0.0 2.0 2.4 4.0 4.7 1.0 2.1 2.9 7.0 5.6 3.9 4.0 6.1 3.6 5.7 3.5 1.4
0.0 0.0 0.0 0.0 0.0 0.0 0.0 5.7 5.0 3.5 3.6 0.9 1.9 2.5 2.6 1.4 1.6 3.0 2.4 2.1 1.4 1.4 3.7 3.6 3.3 2.1 0.3 2.0 2.0 4.2 3.8 5.7 6.2 6.7 3.5 3.8 3.9 2.0 2.8 2.6 2.7 2.4 3.1 2.8
0.0 0.0 0.0 0.0 0.0 0.0 0.0 2.9 1.6 13.6 3.3 0.7 1.6 2.0 1.3 2.4 2.0 0.6 0.5 1.2 2.0 1.1 0.5 0.0 0.0 0.3 1.5 2.9 3.0 2.0 7.3 10.0 12.5 9.9 2.6 4.6 4.0 4.8 4.4 5.3 6.3 5.5 4.6 4.0
0.0 0.0 0.0 0.0 0.0 0.0 0.0 0.0 4.2 20.0 8.5 1.3 0.6 0.1 0.5 1.1 0.4 2.7 0.0 0.2 3.4 0.4 0.1 0.3 0.3 0.3 2.1 2.2 2.1 1.3 4.7 8.9 13.5 15.9 11.9 14.9 6.6 2.5 2.6 4.6 6.0 6.6 4.8 2.6
0.0 0.0 0.0 0.0 0.0 0.0 0.0 0.0 3.1 21.6 15.1 0.8 0.5 0.5 0.8 0.2 0.0 0.8 0.9 0.0 0.1 1.5 2.1 3.2 3.8 2.7 1.9 1.1 1.0 1.9 2.7 6.2 11.5 13.3 10.5 8.4 5.2 4.9 6.4 6.2 6.4 5.1 3.8 1.5
0.0 0.0 0.0 0.0 0.0 0.0 0.0 0.0 0.0 17.1 23.9 4.0 0.3 0.5 0.5 2.7 2.7 1.9 0.3 0.0 0.0 2.5 4.6 5.7 7.1 2.9 0.9 1.5 0.7 0.2 0.9 3.3 11.2 12.0 11.1 6.9 5.6 6.5 8.0 4.4 5.2 3.1 2.7 1.8
0.0 0.0 0.0 0.0 0.0 0.0 0.0 0.0 0.0 3.6 31.6 0.7 0.0 2.0 3.2 2.6 2.8 5.8 1.5 1.0 1.8 1.9 4.7 7.4 5.5 2.8 1.9 1.1 2.6 1.7 1.4 3.8 9.4 8.3 11.6 5.5 4.7 4.2 5.5 7.1 5.8 3.6 4.0 3.0
0.0 0.0 0.0 0.0 0.0 0.0 0.0 0.0 0.0 0.0 29.6 1.8 0.0 0.0 0.6 3.7 5.3 9.6 4.5 6.1 2.6 4.5 7.2 7.1 1.5 4.2 1.5 2.2 2.2 4.9 4.3 5.2 5.1 6.8 12.5 6.5 2.1 1.7 5.5 6.8 3.5 3.5 3.4 3.9
0.0 0.0 0.0 0.0 0.0 0.0 0.0 0.0 0.0 0.0 8.0 3.7 0.0 0.0 0.0 0.0 0.2 4.6 11.5 5.7 2.3 6.8 8.2 5.0 7.8 6.4 4.3 2.4 3.5 1.3 5.8 6.6 7.9 6.2 7.6 6.6 5.0 6.4 6.2 3.3 2.0 1.6 1.8 2.3
0.0 0.0 0.0 0.0 0.0 0.0 0.0 0.0 0.0 0.0 17.4 6.7 2.4 1.1 0.1 0.0 0.6 0.9 13.9 8.2 4.3 5.7 4.4 11.5 10.8 9.3 4.7 3.9 2.0 0.8 3.1 2.3 3.3 2.8 1.9 0.6 3.9 2.2 1.5 1.4 2.4 1.8 1.0 1.0
0.0 0.0 0.0 0.0 0.0 0.0 0.0 0.0 0.0 0.0 22.3 31.1 5.1 0.2 0.1 0.0 0.2 2.5 4.7 5.9 6.9 6.8 6.8 16.0 14.9 9.8 2.9 3.0 1.7 1.1 1.2 0.7 1.6 1.6 0.4 0.6 1.4 0.7 1.0 0.9 0.7 0.7 0.3 1.0
0.0 0.0 0.0 0.0 0.0 0.0 0.0 0.0 0.0 0.0 6.2 33.6 12.0 2.7 0.9 0.0 0.1 1.6 3.3 4.8 5.6 6.2 10.9 15.3 12.1 5.2 6.4 6.1 3.8 2.3 1.4 1.9 2.4 1.6 0.8 1.5 0.2 0.3 0.3 0.2 0.3 0.1 0.3 1.4
0.0 0.0 0.0 0.0 0.0 0.0 0.0 10.5 0.0 0.0 0.8 24.8 27.0 3.8 0.5 0.0 0.3 1.1 2.0 2.7 3.5 7.4 11.5 12.9 6.1 4.0 7.4 11.1 4.7 1.3 0.8 0.9 2.3 1.8 0.6 0.8 0.7 0.1 0.0 1.1 0.5 0.3 1.0 1.7
0.0 0.0 0.0 0.0 0.0 0.0 1.9 14.1 2.4 0.0 0.0 34.1 42.1 22.0 3.6 1.3 1.6 3.1 3.9 3.7 4.1 10.6 18.3 13.7 8.6 7.2 11.0 14.9 6.3 1.0 0.8 1.2 1.4 0.7 0.4 1.4 0.4 0.6 1.3 0.8 0.3 1.5 1.4 1.2
0.0 0.0 0.0 0.0 0.0 3.2 3.8 3.3 4.1 2.7 10.2 28.8 63.9 34.2 12.9 2.3 3.5 7.1 7.6 8.4 7.8 20.8 15.2 12.0 6.4 6.9 13.3 15.6 2.1 1.1 1.0 1.2 2.2 2.1 1.8 3.8 3.0 2.6 2.9 0.7 1.8 1.5 1.7 1.7
0.0 0.0 0.0 5.0 5.0 3.8 3.0 4.1 4.4 3.8 6.4 66.1 45.0 24.4 14.1 6.2 3.7 5.8 9.9 12.3 24.7 18.5 20.0 9.5 7.0 14.9 19.0 9.4 3.5 1.6 2.8 4.7 4.1 3.9 3.1 2.4 2.3 3.0 2.9 2.1 1.7 2.7 4.5 3.4
0.0 7.5 11.2 25.7 8.6 2.7 3.3 4.4 19.3 35.1 47.6 44.7 29.1 14.9 11.5 8.1 10.6 12.0 16.6 23.1 27.6 31.1 18.3 11.9 19.6 13.6 8.1 5.9 7.0 6.6 6.1 5.9 6.0 9.2 7.2 4.2 5.7 5.0 5.4 5.9 6.1 6.0 6.3 6.3
10.4 29.2 29.5 10.4 4.9 5.3 14.6 48.4 48.0 38.8 33.5 18.0 13.4 8.6 10.3 8.2 17.5 18.8 21.4 28.9 27.1 27.8 16.3 13.8 16.1 13.3 7.4 5.8 7.7 7.7 7.5 7.5 7.4 7.7 8.4 10.0 12.0 11.8 9.0 7.1 9.8 8.0 8.5 8.9
13.1 11.5 16.6 16.2 38.7 48.0 49.0 42.3 22.0 15.2 12.2 13.3 9.5 6.7 8.4 13.5 14.4 23.2 27.2 24.7 22.8 19.5 10.0 16.2 12.9 8.5 7.3 9.1 8.8 8.8 8.7 8.4 7.9 7.9 9.7 8.3 8.5 9.1 9.0 9.6 9.6 8.8 8.5 7.7
17.1 38.9 48.7 42.1 41.8 44.8 32.6 17.6 12.5 11.9 9.8 11.0 9.6 10.8 11.8 15.3 21.2 29.2 25.3 24.1 17.2 11.3 13.4 10.5 9.0 7.0 6.9 8.4 10.1 10.2 10.3 8.4 8.8 9.1 7.0 7.2 7.3 6.9 6.7 6.6 5.5 5.6 5.4 6.2
39.7 46.6 40.4 26.5 22.9 12.8 10.9 8.5 8.6 9.4 11.6 13.0 13.6 14.7 16.8 15.2 22.2 21.3 22.6 15.7 10.3 16.9 12.0 9.4 8.3 8.4 7.7 7.2 7.9 8.0 8.2 8.5 8.3 10.7 10.6 8.4 7.0 6.1 5.4 5.9 6.6 5.8 5.2 5.8
54.3 40.0 26.1 15.2 9.4 7.2 9.2 9.4 9.2 11.5 14.6 17.9 18.7 18.8 17.8 20.2 23.6 16.9 11.0 15.4 14.0 12.0 10.3 9.7 9.9 9.8 9.4 8.8 8.0 7.2 6.7 7.4 7.6 7.6 8.1 9.1 6.7 4.9 4.2 5.5 5.6 5.4 5.4 4.4
44.8 31.4 13.9 7.2 6.3 7.3 6.5 8.3 9.2 10.4 12.3 13.9 18.1 17.7 18.4 16.9 15.0 14.0 10.7 10.8 10.1 11.1 11.6 11.6 10.5 9.7 9.1 9.5 9.1 8.5 8.5 8.6 8.8 8.6 9.4 8.5 8.6 9.2 9.0 6.9 6.0 5.8 6.2 4.9
38.4 14.7 8.6 8.7 6.8 6.7 6.8 6.6 6.7 6.9 8.7 10.3 12.1 16.3 11.3 12.1 12.7 9.6 8.0 10.2 11.5 10.7 8.8 8.2 8.6 8.1 8.0 7.6 6.8 6.5 5.9 5.7 5.9 7.0 8.0 9.3 10.0 9.4 7.7 7.8 9.7 8.9 8.6 7.9

GFSNW_prec_snow_342.txt.gz
Snowfall_Accumulation
0.0 0.0 0.0 0.0 0.0 0.0 0.0 0.0 11.6 0.0 0.0 5.4 10.4 11.0 4.6 0.4 0.2 0.0 0.7 0.7 0.8 1.5 1.2 2.1 0.1 0.4 0.4 1.3 2.5 1.9 1.8 5.7 3.8 2.3 2.6 2.1 4.0 3.2 4.2 8.3 7.7 7.5 5.6 4.7
0.0 0.0 0.0 0.0 0.0 0.0 0.0 4.4 2.7 0.0 0.0 10.5 6.7 1.1 0.0 2.1 1.9 0.6 2.3 1.8 2.4 1.8 1.1 5.0 0.0 2.6 1.9 0.4 1.9 3.4 2.7 5.0 3.9 4.2 2.4 2.2 5.3 4.5 3.7 4.8 8.6 8.1 6.3 2.3
0.0 0.0 0.0 0.0 0.0 0.0 0.0 4.5 10.6 0.0 0.0 0.0 3.5 4.3 1.9 1.0 1.1 2.1 2.1 2.4 0.1 2.5 0.8 0.1 3.9 2.9 3.4 2.2 2.1 1.5 6.4 6.3 4.4 4.2 8.7 10.1 7.7 3.8 2.8 5.0 10.8 4.8 2.8 1.1
0.0 0.0 0.0 0.0 0.0 0.0 0.0 5.5 6.8 0.0 9.1 1.9 3.6 4.9 4.4 2.4 3.0 0.4 1.8 2.3 1.8 3.7 5.3 1.9 1.8 0.7 0.4 0.0 2.0 2.4 4.0 4.8 1.0 2.1 2.9 7.0 5.6 3.9 4.0 6.1 3.6 5.7 3.5 1.4
0.0 0.0 0.0 0.0 0.0 0.0 0.0 5.7 5.0 3.5 3.6 0.9 1.9 2.5 2.6 1.4 1.6 3.0 2.4 2.1 1.4 1.6 3.9 3.6 3.8 2.5 0.5 2.0 2.0 4.2 4.4 6.3 6.2 6.8 3.5 3.8 3.9 2.0 2.8 2.6 2.7 2.4 3.1 2.8
0.0 0.0 0.0 0.0 0.0 0.0 0.0 2.9 1.6 13.6 3.5 0.7 1.6 2.0 1.3 2.4 2.0 0.6 0.5 1.2 2.6 1.8 0.5 0.3 0.3 1.0 2.0 3.1 3.0 2.1 7.9 10.4 13.2 10.3 2.6 4.6 4.0 4.8 4.4 5.3 6.3 5.5 4.6 4.0
0.0 0.0 0.0 0.0 0.0 0.0 0.0 0.0 4.2 21.2 9.2 1.5 0.7 0.1 0.5 1.1 0.4 2.8 0.0 0.2 5.1 0.8 0.1 1.4 1.1 0.9 2.6 2.7 2.5 1.3 5.1 9.4 14.4 16.3 12.0 15.0 6.6 2.5 2.6 4.6 6.0 6.6 4.8 2.6
0.0 0.0 0.0 0.0 0.0 0.0 0.0 0.0 3.1 23.8 16.9 1.1 0.6 0.5 0.8 0.2 0.0 0.8 0.9 0.0 0.1 2.3 3.7 4.8 4.8 3.0 1.9 1.1 1.0 2.1 2.9 6.9 12.3 13.9 10.8 8.4 5.2 4.9 6.4 6.2 6.4 5.1 3.8 1.5
0.0 0.0 0.0 0.0 0.0 0.0 0.0 0.0 0.0 17.1 26.7 4.0 0.3 0.5 0.5 3.1 2.7 2.1 0.3 0.0 0.0 3.6 6.6 7.2 8.2 3.3 1.0 1.5 0.7 0.3 1.2 3.9 12.4 12.6 11.6 7.0 5.6 6.5 8.0 4.4 5.2 3.1 2.7 1.8
0.0 0.0 0.0 0.0 0.0 0.0 0.0 0.0 0.0 3.6 35.0 0.7 0.0 2.3 3.5 2.6 2.8 5.8 1.7 1.2 2.5 3.0 6.1 8.5 6.1 3.2 1.9 1.3 2.6 1.7 1.4 4.2 10.1 8.7 12.4 5.9 4.7 4.2 5.5 7.1 5.8 3.6 4.0 3.0
0.0 0.0 0.0 0.0 0.0 0.0 0.0 0.0 0.0 0.0 29.6 1.8 0.0 0.0 0.6 3.7 5.3 10.3 5.3 7.3 3.4 5.2 8.1 7.8 1.8 4.7 1.5 2.3 2.2 4.9 4.3 5.4 5.5 7.2 13.4 6.9 2.1 1.7 5.5 6.8 3.5 3.5 3.4 3.9
0.0 0.0 0.0 0.0 0.0 0.0 0.0 0.0 0.0 0.0 8.0 3.7 0.0 0.0 0.0 0.0 0.2 4.6 13.7 6.8 2.3 7.5 9.0 5.7 8.7 7.3 4.8 2.4 3.6 1.3 5.8 6.6 7.9 6.4 7.7 6.6 5.0 6.4 6.2 3.3 2.0 1.6 1.8 2.3
0.0 0.0 0.0 0.0 0.0 0.0 0.0 0.0 0.0 0.0 17.4 6.7 2.4 1.1 0.1 0.0 0.6 0.9 15.6 9.7 4.3 6.4 4.8 12.9 12.7 10.9 5.3 4.4 2.2 0.8 3.1 2.3 3.4 2.8 1.9 0.6 3.9 2.2 1.5 1.4 2.4 1.8 1.0 1.0
0.0 0.0 0.0 0.0 0.0 0.0 0.0 0.0 0.0 0.0 22.3 33.7 6.0 0.2 0.1 0.0 0.2 2.5 4.7 5.9 7.6 7.9 7.9 17.7 16.2 10.7 3.3 3.4 1.7 1.1 1.2 0.7 1.9 2.0 0.4 0.6 1.5 0.7 1.0 0.9 0.7 0.7 0.3 1.0
0.0 0.0 0.0 0.0 0.0 0.0 0.0 0.0 0.0 0.0 6.2 34.5 12.5 2.9 0.9 0.0 0.1 1.6 3.5 5.4 6.8 7.9 12.5 16.7 13.0 5.5 6.8 6.6 4.2 2.5 1.4 1.9 2.6 1.8 1.0 1.7 0.4 0.4 0.5 0.5 0.5 0.2 0.3 1.4
0.0 0.0 0.0 0.0 0.0 0.0 0.0 10.7 0.0 0.0 0.8 25.7 28.0 3.8 0.5 0.0 0.3 1.1 2.2 3.1 4.3 8.4 12.5 13.7 6.7 4.4 7.7 11.8 5.1 1.3 0.8 0.9 2.3 2.1 0.9 1.0 0.9 0.4 0.3 1.3 0.6 0.3 1.0 1.7
0.0 0.0 0.0 0.0 0.0 0.0 2.4 14.2 2.4 0.0 0.0 36.5 44.8 23.8 4.0 1.4 1.6 3.2 4.0 4.0 4.4 11.0 18.8 14.1 8.8 7.3 11.3 15.5 6.4 1.0 0.8 1.2 1.8 1.1 0.6 1.5 0.5 0.8 1.4 0.8 0.3 1.6 1.4 1.2
0.0 0.0 0.0 0.0 0.0 3.2 4.0 3.3 4.1 2.7 10.2 30.2 65.8 35.7 13.6 2.7 3.7 7.2 7.7 8.5 7.9 21.1 15.5 12.2 6.4 7.0 13.7 15.9 2.1 1.1 1.0 1.5 2.3 2.2 1.8 3.8 3.0 2.6 2.9 0.7 1.8 1.5 1.7 1.7
0.0 0.0 0.0 5.0 5.0 3.9 3.0 4.1 4.4 3.8 6.7 66.9 45.0 24.4 14.1 6.6 3.7 6.1 10.2 12.6 25.1 18.8 20.1 9.5 7.0 15.0 19.0 9.4 3.5 1.6 2.8 4.7 4.1 3.9 3.1 2.4 2.3 3.0 2.9 2.1 1.7 2.7 4.5 3.4
0.0 7.5 12.1 26.5 9.0 2.7 3.3 5.1 20.2 36.2 48.6 45.6 29.6 14.9 11.5 8.1 10.6 12.2 17.0 23.5 27.9 31.4 18.4 11.9 19.7 13.6 8.1 5.9 7.0 6.6 6.2 5.9 6.0 9.2 7.2 4.2 5.7 5.0 5.4 5.9 6.1 6.0 6.3 6.3
11.0 30.0 29.5 10.7 4.9 5.3 14.9 48.4 48.8 39.6 34.2 18.4 13.7 8.8 10.5 8.4 17.7 19.0 21.7 29.2 27.3 28.0 16.3 13.8 16.1 13.3 7.4 5.8 7.7 7.7 7.5 7.5 7.4 7.7 8.4 10.0 12.0 11.8 9.0 7.1 9.8 8.0 8.5 8.9
14.1 13.3 17.7 16.7 38.9 48.5 49.7 42.9 22.3 15.5 12.5 13.8 9.8 6.9 8.6 13.8 14.6 23.4 27.7 25.1 23.3 19.9 10.1 16.2 12.9 8.5 7.3 9.1 8.8 8.8 8.7 8.4 7.9 7.9 9.7 8.3 8.5 9.1 9.0 9.6 9.6 8.8 8.5 7.7
18.7 40.7 50.0 42.1 42.4 45.3 32.9 17.7 12.5 11.9 9.8 11.0 9.6 10.8 12.0 15.5 21.5 29.7 25.9 24.6 17.6 11.5 13.6 10.6 9.0 7.0 6.9 8.4 10.1 10.2 10.3 8.4 8.8 9.1 7.0 7.2 7.3 6.9 6.7 6.6 5.5 5.6 5.4 6.2
41.7 47.4 40.6 26.5 23.2 13.0 11.0 8.6 8.7 9.7 12.2 13.8 14.4 15.4 17.6 16.0 23.1 22.1 23.2 16.2 10.5 17.0 12.0 9.4 8.3 8.4 7.7 7.2 7.9 8.0 8.2 8.5 8.3 10.7 10.6 8.4 7.0 6.1 5.4 5.9 6.6 5.8 5.2 5.8
56.0 40.9 26.7 15.6 9.5 7.2 9.3 9.5 9.3 11.6 14.8 18.1 18.9 19.1 18.1 20.4 24.0 17.2 11.2 15.6 14.1 12.0 10.3 9.7 9.9 9.8 9.4 8.8 8.0 7.2 6.7 7.4 7.6 7.6 8.1 9.1 6.7 4.9 4.2 5.5 5.6 5.4 5.4 4.4
45.8 32.2 14.2 7.4 6.5 7.5 6.8 8.6 9.2 10.7 12.6 14.3 18.4 18.0 18.6 17.1 15.2 14.1 10.9 10.9 10.1 11.1 11.6 11.6 10.5 9.7 9.1 9.5 9.1 8.5 8.5 8.6 8.8 8.6 9.4 8.5 8.6 9.2 9.0 6.9 6.0 5.8 6.2 4.9
38.4 14.7 8.6 8.9 6.8 6.8 6.9 6.6 6.8 7.0 8.9 10.6 12.3 16.5 11.5 12.3 12.8 9.7 8.0 10.2 11.5 10.7 8.8 8.2 8.6 8.1 8.0 7.6 6.8 6.5 5.9 5.7 5.9 7.0 8.0 9.3 10.0 9.4 7.7 7.8 9.7 8.9 8.6 7.9

GFSNW_prec_snow_345.txt.gz
Snowfall_Accumulation
0.0 0.0 0.0 0.0 0.0 0.0 0.0 0.0 11.6 0.0 0.0 5.4 10.4 11.0 4.6 0.4 0.2 0.0 0.7 0.7 0.8 1.5 1.2 2.1 0.1 0.4 0.4 1.3 2.5 1.9 1.8 5.7 3.8 2.3 2.6 2.1 4.0 3.2 4.2 8.3 7.7 7.5 5.6 4.7
0.0 0.0 0.0 0.0 0.0 0.0 0.0 4.4 2.7 0.0 0.0 10.5 6.7 1.1 0.0 2.1 1.9 0.6 2.3 1.8 2.4 1.8 1.1 5.0 0.0 2.6 1.9 0.4 1.9 3.4 2.7 5.0 3.9 4.2 2.4 2.2 5.3 4.5 3.7 4.8 8.6 8.1 6.3 2.3
0.0 0.0 0.0 0.0 0.0 0.0 0.0 4.5 10.6 0.0 0.0 0.0 3.5 4.3 1.9 1.0 1.1 2.1 2.1 2.4 0.1 2.5 0.8 0.1 4.0 2.9 3.4 2.2 2.1 1.6 6.4 6.3 4.4 4.2 8.7 10.1 7.7 3.8 2.8 5.0 10.8 4.8 2.8 1.1
0.0 0.0 0.0 0.0 0.0 0.0 0.0 5.5 6.8 0.0 9.1 1.9 3.6 4.9 4.4 2.4 3.0 0.4 1.8 2.3 1.8 3.7 5.5 2.0 1.8 0.7 0.5 0.1 2.0 2.5 4.0 4.9 1.0 2.1 2.9 7.0 5.6 3.9 4.0 6.1 3.6 5.7 3.5 1.4
0.0 0.0 0.0 0.0 0.0 0.0 0.0 5.7 5.0 3.5 3.6 0.9 1.9 2.5 2.6 1.4 1.6 3.1 2.6 2.2 1.4 1.8 4.4 3.6 4.2 3.5 1.1 2.2 2.0 4.5 4.9 6.6 6.2 6.8 3.5 3.8 3.9 2.0 2.8 2.6 2.7 2.4 3.1 2.8
0.0 0.0 0.0 0.0 0.0 0.0 0.0 2.9 1.6 13.6 4.4 0.7 1.6 2.0 1.3 2.4 2.0 0.6 0.5 1.2 3.7 3.0 0.6 0.3 1.0 2.1 3.1 3.6 3.3 2.5 8.7 10.9 13.8 10.9 2.6 4.6 4.1 4.8 4.4 5.3 6.3 5.5 4.6 4.0
0.0 0.0 0.0 0.0 0.0 0.0 0.0 0.0 4.2 23.1 10.6 1.9 0.7 0.1 0.5 1.1 0.4 2.8 0.0 0.2 6.5 0.8 0.1 2.5 2.4 1.8 3.5 3.8 3.2 1.5 6.1 10.6 15.8 17.1 12.3 15.2 6.6 2.5 2.6 4.6 6.0 6.6 4.8 2.6
0.0 0.0 0.0 0.0 0.0 0.0 0.0 0.0 3.1 23.8 18.3 1.1 0.6 0.5 0.8 0.2 0.0 0.8 0.9 0.0 0.1 2.3 5.0 6.5 6.2 3.5 1.9 1.1 1.0 2.3 3.2 8.0 13.7 14.9 11.2 8.4 5.2 4.9 6.4 6.2 6.4 5.1 3.8 1.5
0.0 0.0 0.0 0.0 0.0 0.0 0.0 0.0 0.0 17.1 28.6 4.4 0.3 0.5 0.5 3.1 2.8 2.3 0.3 0.0 0.0 4.1 8.3 8.9 9.2 3.7 1.0 1.5 0.7 0.4 1.6 4.6 14.0 13.6 12.1 7.2 5.6 6.5 8.0 4.4 5.2 3.1 2.7 1.8
0.0 0.0 0.0 0.0 0.0 0.0 0.0 0.0 0.0 3.6 37.5 0.7 0.0 2.4 3.6 2.6 2.8 6.1 1.7 1.2 2.8 3.0 7.4 9.5 6.7 3.6 1.9 1.5 2.6 1.7 1.6 4.7 11.0 9.1 13.3 6.3 4.7 4.2 5.5 7.1 5.8 3.6 4.0 3.0
0.0 0.0 0.0 0.0 0.0 0.0 0.0 0.0 0.0 0.0 32.8 1.8 0.0 0.0 0.6 3.7 5.5 10.7 5.5 8.1 4.0 5.8 8.9 8.3 1.8 5.1 1.5 2.3 2.2 4.9 4.3 5.5 5.8 7.6 14.3 7.3 2.1 1.7 5.5 6.8 3.5 3.5 3.4 3.9
0.0 0.0 0.0 0.0 0.0 0.0 0.0 0.0 0.0 0.0 8.0 3.7 0.0 0.0 0.0 0.0 0.2 4.6 15.0 7.6 2.3 7.8 9.6 6.0 9.3 8.1 5.1 2.4 3.6 1.3 5.8 6.6 7.9 6.7 7.9 6.6 5.0 6.4 6.2 3.3 2.0 1.6 1.8 2.3
0.0 0.0 0.0 0.0 0.0 0.0 0.0 0.0 0.0 0.0 17.4 6.7 2.4 1.1 0.1 0.0 0.6 0.9 16.8 11.4 4.3 6.8 4.8 13.7 14.2 12.4 5.8 4.7 2.2 0.8 3.1 2.3 3.4 2.8 1.9 0.6 3.9 2.3 1.6 1.5 2.5 1.8 1.0 1.0
0.0 0.0 0.0 0.0 0.0 0.0 0.0 0.0 0.0 0.0 22.3 34.6 6.5 0.2 0.1 0.0 0.2 2.5 4.7 5.9 7.6 9.6 9.4 19.6 18.0 11.9 3.8 3.8 1.7 1.1 1.2 0.7 1.9 2.5 0.4 0.6 1.6 0.7 1.0 1.1 0.8 0.7 0.3 1.0
0.0 0.0 0.0 0.0 0.0 0.0 0.0 0.0 0.0 0.0 6.2 34.9 12.5 2.9 0.9 0.0 0.1 1.6 3.5 5.7 7.5 9.7 14.4 18.5 14.1 5.8 7.1 7.1 4.7 2.8 1.4 1.9 2.6 1.8 1.0 1.9 0.5 0.5 0.5 0.7 0.7 0.4 0.4 1.4
0.0 0.0 0.0 0.0 0.0 0.0 0.0 11.2 0.0 0.0 0.8 26.2 28.1 3.8 0.5 0.0 0.3 1.1 2.2 3.3 4.7 9.3 13.7 14.9 7.9 4.8 7.7 12.5 5.8 1.3 0.8 0.9 2.3 2.3 1.1 1.3 1.1 0.5 0.5 1.5 0.9 0.6 1.1 1.8
0.0 0.0 0.0 0.0 0.0 0.0 3.4 14.8 2.4 0.0 0.0 39.0 47.4 25.8 4.0 1.6 1.7 3.2 4.1 4.2 4.9 11.6 19.7 15.0 9.4 7.6 11.9 16.3 6.8 1.0 0.8 1.3 2.0 1.4 0.9 1.7 0.7 0.9 1.6 0.9 0.5 1.7 1.5 1.2
0.0 0.0 0.0 0.0 0.0 3.2 4.7 3.3 4.1 2.7 10.6 31.3 67.4 36.6 13.9 3.1 4.1 7.5 8.0 8.9 8.5 21.9 16.2 12.7 6.7 7.3 14.3 16.6 2.1 1.2 1.1 1.6 2.5 2.4 1.9 3.9 3.0 2.7 2.9 0.7 1.8 1.5 1.7 1.7
0.0 0.0 0.0 5.0 5.0 3.9 3.0 4.1 4.4 3.8 7.3 67.7 45.3 24.4 14.1 6.6 3.7 6.2 10.2 12.8 25.3 19.2 20.5 9.5 7.5 15.6 19.5 9.4 3.6 1.7 2.9 4.9 4.2 4.0 3.1 2.4 2.3 3.0 2.9 2.1 1.7 2.7 4.5 3.4
0.0 7.8 12.1 26.7 9.0 2.7 3.3 5.1 20.2 37.2 50.0 46.9 30.0 14.9 11.5 8.1 10.6 12.3 17.0 23.7 28.2 31.8 18.7 11.9 20.1 13.8 8.1 5.9 7.0 6.6 6.3 6.1 6.0 9.2 7.2 4.2 5.7 5.0 5.4 5.9 6.1 6.0 6.3 6.3
11.3 30.0 29.5 10.7 4.9 5.9 15.6 48.8 49.2 40.4 35.2 18.9 13.9 9.0 10.7 8.8 18.0 19.4 22.1 29.6 27.5 28.1 16.3 13.8 16.2 13.3 7.4 5.8 7.7 7.8 7.6 7.6 7.4 7.7 8.4 10.0 12.0 11.8 9.0 7.1 9.8 8.0 8.5 8.9
14.1 13.3 17.7 16.7 40.0 49.2 49.7 43.3 22.4 15.5 12.5 13.8 9.8 7.1 9.1 14.6 15.5 24.4 28.6 25.8 23.8 20.3 10.3 16.3 13.0 8.5 7.3 9.1 8.9 8.8 8.7 8.4 7.9 7.9 9.7 8.3 8.5 9.1 9.0 9.6 9.6 8.8 8.5 7.7
19.1 41.2 51.0 42.8 43.1 46.0 33.2 17.7 12.5 12.4 10.2 11.3 9.9 11.2 12.4 15.8 21.9 30.2 26.3 24.9 17.9 11.7 13.7 10.6 9.0 7.0 6.9 8.4 10.1 10.2 10.3 8.4 8.8 9.1 7.0 7.2 7.3 6.9 6.7 6.6 5.5 5.6 5.4 6.2
41.7 48.4 41.7 26.9 23.3 13.1 11.1 8.7 9.0 10.2 12.7 14.3 14.7 15.6 17.7 16.1 23.3 22.5 23.5 16.4 10.8 17.2 12.1 9.4 8.3 8.4 7.7 7.2 7.9 8.0 8.2 8.5 8.3 10.7 10.6 8.4 7.0 6.1 5.4 5.9 6.6 5.8 5.2 5.8
57.8 42.0 27.0 15.6 9.6 7.3 9.4 9.6 9.6 11.9 15.1 18.2 19.1 19.3 18.3 20.6 24.3 17.3 11.4 15.7 14.2 12.1 10.3 9.7 9.9 9.8 9.4 8.8 8.0 7.2 6.7 7.4 7.6 7.6 8.1 9.1 6.7 4.9 4.2 5.5 5.6 5.4 5.4 4.4
45.8 32.2 14.5 7.4 6.7 7.7 6.8 9.0 9.5 10.9 12.7 14.4 18.5 18.1 18.7 17.2 15.3 14.3 11.0 11.1 10.2 11.1 11.6 11.6 10.5 9.7 9.1 9.5 9.1 8.5 8.5 8.6 8.8 8.6 9.4 8.5 8.6 9.2 9.0 6.9 6.0 5.8 6.2 4.9
38.4 14.7 8.6 8.9 6.9 6.8 6.9 6.7 6.9 7.1 9.0 10.7 12.4 16.6 11.6 12.4 13.0 9.8 8.1 10.2 11.5 10.7 8.8 8.2 8.6 8.1 8.0 7.6 6.8 6.5 5.9 5.7 5.9 7.0 8.0 9.3 10.0 9.4 7.7 7.8 9.7 8.9 8.6 7.9